Regional Weather Roundup
Issued by NWS

Home | Current Version | Previous Version | Graphics & Text | Print | Product List | Glossary On
Versions: 1 2 3 4 5 6 7 8 9 10 11 12 13 14 15 16 17 18 19 20 21 22 23 24 25 26 27 28 29 30 31 32 33 34 35 36 37 38 39 40 41 42 43 44 45 46 47 48 49 50
000
ASUS43 KDTX 081310
RWRMI
MICHIGAN HOURLY REGIONAL WEATHER ROUNDUP
NATIONAL WEATHER SERVICE DETROIT/PONTIAC MI
ISSUED BY NATIONAL WEATHER SERVICE GRAND RAPIDS MI
800 AM EST THU DEC 08 2016

NOTE: "FAIR" INDICATES FEW OR NO CLOUDS BELOW 12,000 FEET WITH NO
SIGNIFICANT WEATHER AND/OR OBSTRUCTION TO VISIBILITY.

MIZ047>049-052>055-059>063-066>070-074>076-081>083-081400-
SOUTHEAST LOWER MICHIGAN

CITY           SKY/WX    TMP DP  RH WIND       PRES   REMARKS
ADRIAN         CLOUDY    25  18  74 W12G22    30.08R WCI  14
ALMA           FLURRIES  26  16  65 W14G24    30.01R WCI  14
ANN ARBOR      CLOUDY    27  19  72 SW18G26   30.03R WCI  14
BAD AXE        FLURRIES  26  16  66 W16G25    29.95R WCI  13
DETROIT CITY   FLURRIES  28  20  71 W15       30.03R WCI  16
DETROIT        FLURRIES  29  18  63 W21       30.04R WCI  16
FLINT          FLURRIES  26  18  71 W20G28    30.00R WCI  12
GROSSE ILE     FLURRIES  28  20  72 W8G17     30.04R WCI  20
HILLSDALE      CLOUDY    23  18  80 SW14      30.04R WCI  11
HOWELL         CLOUDY    27  18  68 W13G26    30.00S WCI  16

CITY           SKY/WX    TMP DP  RH WIND       PRES   REMARKS
JACKSON        FLURRIES  26  16  65 W20G31    30.03R WCI  12
LANSING        FLURRIES  27  18  69 W15       30.03R WCI  15
MASON          CLOUDY    27  20  77 W14G20    30.02R WCI  15
MONROE         CLOUDY    28  21  74 W15G21    30.06R WCI  16
MT. CLEMENS    FLURRIES  29  20  68 W13       29.99R WCI  18
PONTIAC        FLURRIES  26  18  71 W20       29.99R WCI  12
PORT HOPE        N/A     27  16  63 W14G25    29.92R WCI  16
PORT HURON     CLOUDY    28  19  69 W8G18     29.99S WCI  20
TRI CITIES     FLURRIES  26  17  68 W18G28    29.99R WCI  13
YPSILANTI      FLURRIES  29  19  66 W21       30.04R WCI  16
$$
MIZ043>046-050>051-056>058-064>065-071>073-077>080-081400-
SOUTHWEST LOWER MICHIGAN

CITY           SKY/WX    TMP DP  RH WIND       PRES   REMARKS
BATTLE CREEK   CLOUDY    26  19  74 W15G22    30.05R WCI  14
BENTON HARBOR  CLOUDY    27  18  69 W22G29    30.12R WCI  13
BIG RAPIDS     CLOUDY    25  19  78 W13       29.97R WCI  13
COLDWATER      CLOUDY    25  18  74 W14G26    30.07S WCI  13
HOLLAND        FLURRIES  27  19  72 W17G26    30.07R WCI  14
GRAND RAPIDS   CLOUDY    27  16  63 W15       30.04R WCI  15
KALAMAZOO      SNOW      26  18  71 W13       30.07R VSB 1/2 WCI  15
MARSHALL       CLOUDY    27  18  70 W18G24    30.04R WCI  13
MOUNT PLEASANT FLURRIES  25  17  72 W12G22    29.97S WCI  14
MUSKEGON       LGT SNOW  26  17  68 W18G32    30.06R WCI  13
STURGIS        FLURRIES  23  16  75 W15G22    30.09S WCI  10
$$
MIZ016>042-081400-
NORTHERN LOWER MICHIGAN

CITY           SKY/WX    TMP DP  RH WIND       PRES   REMARKS
ALPENA         CLOUDY    27  17  66 SW15G23   29.85S WCI  15
BEAVER ISLAND  LGT SNOW  27  25  94 W15G25    29.86R WCI  15
BELLAIRE       FLURRIES  27  21  79 SW9       29.91S WCI  17
CADILLAC       LGT SNOW  21  17  84 W10G17    29.91R WCI  10
CHARLEVOIX     LGT SNOW  28  23  80 W22G30    29.90R WCI  15
GAYLORD        FLURRIES  24  17  74 W18G24    29.84R WCI  10
HOUGHTON LAKE  CLOUDY    23  16  74 W20G30    29.91S WCI   8
MANISTEE       LGT SNOW  23  19  86 W20G28    29.99R FOG     WCI   8
OSCODA         FLURRIES  27  18  70 MISG      29.90S
PELLSTON       LGT SNOW  27  21  78 W10       29.84R WCI  17
TRAVERSE CITY  FLURRIES  25  18  74 SW8       29.93R WCI  16
LUDINGTON      LGT SNOW  24  19  81 W12G21    30.02R WCI  12
$$
MIZ007>008-015-081400-
EASTERN UPPER MICHIGAN

CITY           SKY/WX    TMP DP  RH WIND       PRES   REMARKS
KINROSS        FLURRIES  21  18  88 W12       29.79R WCI   9
MACKINAC ISLAN LGT SNOW  27  27 100 W23G31    29.81R WCI  13
NEWBERRY       SNOW      21  20  96 W15       29.81R VSB 1/2 WCI   7
S. S. MARIE    FLURRIES  25  20  81 SW14      29.75F WCI  13
$$
MIZ004>006-011>014-085-081400-
CENTRAL UPPER MICHIGAN

CITY           SKY/WX    TMP DP  RH WIND       PRES   REMARKS
MANISTIQUE     FLURRIES  21  17  84 W13G22    29.86R WCI   9
ESCANABA       FLURRIES  21  14  74 W17       29.92R WCI   7
MENOMINEE      FLURRIES  19  13  77 MISG        N/A
SAWYER-GWINN   LGT SNOW  19  16  86 W9        29.87R WCI   9
$$
MIZ001>003-009>011-084-081400-
WESTERN UPPER MICHIGAN

CITY           SKY/WX    TMP DP  RH WIND       PRES   REMARKS
IRON MOUNTAIN  CLOUDY    19  12  74 W12       29.92R WCI   7
HOUGHTON       FLURRIES  27  19  72 N20G28    29.93R WCI  13
IRONWOOD       FLURRIES  25  19  78 NW14G24   30.01R WCI  13
$$

ABBREVIATIONS USED IN REMARKS
   TC - TEMPERATURE IN CELSIUS
  WCI - WIND CHILL INDEX
   HX - HEAT INDEX
  VSB - VISIBILITY





USA.gov is the U.S. government's official web portal to all federal, state and local government web resources and services.